Regional Weather Roundup
Issued by NWS

Home | Current Version | Previous Version | Text Only | Print | Product List | Glossary Off
Versions: 1 2 3 4 5 6 7 8 9 10 11 12 13 14 15 16 17 18 19 20 21 22 23 24 25 26 27 28 29 30 31 32 33 34 35 36 37 38 39 40 41 42 43 44 45 46 47 48 49 50

000
ASUS43 KLOT 290309
RWRIL

ILLINOIS REGIONAL WEATHER ROUNDUP
NATIONAL WEATHER SERVICE CHICAGO/ROMEOVILLE IL
1000 PM CDT SUN MAY 28 2017

NOTE: "FAIR" INDICATES FEW OR NO CLOUDS BELOW 12,000 FEET WITH NO
SIGNIFICANT WEATHER AND/OR OBSTRUCTIONS TO VISIBILITY.

* THESE STATIONS ARE NOT UNDER NWS QUALITY CONTROL. THEY ALSO MAY NOT
  REPORT WEATHER SUCH AS PRECIPITATION OR FOG.

ILZ001-002-007-009-015-016-024-290400-
NORTHWEST ILLINOIS

CITY           SKY/WX    TMP DP  RH WIND       PRES   REMARKS
MOLINE         MOCLDY    68  49  50 CALM      29.77S
STERLING*      PTCLDY    63  55  75 SW3       29.78R
SAVANNA*       MOCLDY    62  54  74 SE3       29.78R
$$

ILZ003-004-008-010-011-017-018-290400-
NORTH CENTRAL ILLINOIS

CITY           SKY/WX    TMP DP  RH WIND       PRES   REMARKS
ROCKFORD       MOCLDY    62  50  64 CALM      29.78R
FREEPORT*      PTCLDY    59  50  71 SW3       29.79R
ROCHELLE*      PTCLDY    62  54  74 SW3       29.79R
DE KALB*       CLEAR     65  49  56 SW6       29.79S
PERU*          CLEAR     65  48  54 SW5       29.79S
$$

ILZ005-006-012>014-019>023-290400-
NORTHEAST ILLINOIS

CITY           SKY/WX    TMP DP  RH WIND       PRES   REMARKS
CHICAGO-OHARE  CLEAR     68  46  45 W5        29.76R
CHICAGO-MIDWAY CLEAR     69  50  50 W6        29.77R
AURORA         CLEAR     62  53  72 SW3       29.78R
LANSING*       CLEAR     66  57  72 W3        29.78R
JOLIET*        CLEAR     60  54  79 CALM      29.79R
WAUKEGAN       CLEAR     63  47  55 CALM      29.75R
DUPAGE AIRPORT CLEAR     65  50  58 SW3       29.77R
KANKAKEE*      CLEAR     66  52  61 CALM      29.81R
WHEELING       CLEAR     68  46  45 W3        29.77R
MORRIS*        CLEAR     65  50  57 CALM      29.78R
ROMEOVILLE*    CLEAR     65  54  68 W3        29.79R
NORTHERLY ISL    N/A     70  46  42 W3          N/A
$$

LMZ740>746-290400-
SOUTHERN LAKE MICHIGAN

STATION/POSITION SKY/WX   TEMP    WIND        PRES    VSBY  WAVE
                          AIR SEA DIR/SP/G                  HT/PER
                          (F)     (DEG/KT/KT) (MB)    (MI)  (FT/S)
SOUTHERN BUOY              51 49  230/ 10/ 12 1007.2R         0
WILMETTE HARBOR            62 56  250/  6/  6   N/A           1
HARRISON CRIB              73     290/ 11/ 12   N/A
BURNHAM HARBOR             69     290/  3/ 11   N/A
CALUMET HARBOR             70     240/  2/  3 1007.8R
BURNS HARBOR               67     250/  6/ 10 1008.8R
MICHIGAN CITY              67     200/ 10/ 12   N/A
MICHIGAN CITY 6N           63 58  240/  6/  8   N/A           1
ST. JOSEPH                 60 60  200/  6/  8 1008.0          0
$$

ILZ025>027-034>036-040-047-049-050-058-095>099-290400-
WEST-CENTRAL ILLINOIS

CITY           SKY/WX    TMP DP  RH WIND       PRES   REMARKS
QUINCY         PTCLDY    64  52  64 SW6       29.84S
GALESBURG*     CLEAR     62  51  68 S7        29.80S
MACOMB*        PTCLDY    66  53  62 SW6       29.84R
JACKSONVILLE*  CLEAR     62  59  91 SW6       29.85R
PITTSFIELD*    CLEAR     68  57  67 CALM      29.86S
$$

ILZ028>032-037-038-041>044-048-051>054-059>061-290400-
CENTRAL ILLINOIS

CITY           SKY/WX    TMP DP  RH WIND       PRES   REMARKS
PONTIAC        CLEAR     65  54  68 W3        29.82R
BLOOMINGTON    CLEAR     67  50  54 W6        29.84R
DECATUR        CLOUDY    69  53  56 W8        29.84R
PEORIA         CLEAR     64  51  62 CALM      29.81S
LACON*         CLEAR     61  51  70 CALM      29.79R
LINCOLN*       CLEAR     70  55  58 CALM      29.83S
SPRINGFIELD    CLEAR     66  57  72 SW5       29.84S
TAYLORVILLE    CLOUDY    68  55  63 SW9       29.85S
$$

ILZ033-039-045-046-055>057-062-063-290400-
EAST-CENTRAL ILLINOIS

CITY           SKY/WX    TMP DP  RH WIND       PRES   REMARKS
CHAMPAIGN      MOCLDY    67  55  65 SW8       29.83R
RANTOUL*       PTCLDY    68  56  64 W5        29.83R
MATTOON        CLEAR     68  53  58 SW3       29.83R
PARIS*         CLEAR     64  56  76 SW5       29.85R
$$

ILZ079-100>102-290400-
SOUTHWEST ILLINOIS

CITY           SKY/WX    TMP DP  RH WIND       PRES   REMARKS
ALTON          CLEAR     66  57  72 W6        29.88R
BELLEVILLE     CLEAR     66  58  75 S5        29.91R
CAHOKIA*       PTCLDY    71  55  56 S3        29.89R
SPARTA*        CLEAR     68  58  70 SW5       29.92R
$$

ILZ064>066-069>071-074>076-080>082-084>086-088>090-092>094-290400-
SOUTH-CENTRAL ILLINOIS

CITY           SKY/WX    TMP DP  RH WIND       PRES   REMARKS
CARBONDALE     CLEAR     66  63  90 W3        29.89F
CAIRO*         CLEAR     68  67  99 CALM      29.91R
EFFINGHAM*     CLEAR     64  58  79 S5        29.88R
MARION         CLEAR     64  64 100 CALM      29.90S
MT. VERNON       N/A     62  59  90 CALM      29.91R
CENTRALIA*     CLEAR     66  60  79 SW6       29.90R
SALEM*         CLEAR     66  57  72 SW5       29.89R
METROPOLIS*    CLEAR     67  67  99 CALM      29.91S FOG
$$

ILZ067-068-072-073-078-083-087-091-290400-
SOUTHEAST ILLINOIS

CITY           SKY/WX    TMP DP  RH WIND       PRES   REMARKS
LAWRENCEVILLE  CLEAR     70  64  81 SW9       29.87R
FLORA*         CLEAR     68  61  77 SW6       29.89R
FAIRFIELD*     CLEAR     67  62  84 CALM      29.88R
HARRISBURG*    CLEAR     66  64  93 CALM      29.89S
ROBINSON*      CLEAR     66  63  89 SW8       29.86R
CARMI*         CLEAR     67  64  90 SW5       29.88R
$$

ABBREVIATIONS USED IN REMARKS
   TC - TEMPERATURE IN CELSIUS
  WCI - WIND CHILL INDEX
   HX - HEAT INDEX
  VSB - VISIBILITY
$$





USA.gov is the U.S. government's official web portal to all federal, state and local government web resources and services.